Regional Weather Roundup
Issued by NWS Sterling, VA

Home | Current Version | Previous Version | Graphics & Text | Print | Product List | Glossary On
Versions: 1 2 3 4 5 6 7 8 9 10 11 12 13 14 15 16 17 18 19 20 21 22 23 24 25 26 27 28 29 30 31 32 33 34 35 36 37 38 39 40 41 42 43 44 45 46 47 48 49 50
000
ASUS41 KLWX 291710
RWRLWX

REGIONAL WEATHER ROUNDUP
NATIONAL WEATHER SERVICE BALTIMORE MD/WASHINGTON DC
1200 PM EST THU JAN 29 2015

Note: "FAIR" indicates few or no clouds below 12,000 feet
with no significant weather and/or obstructions to visibility.
 TC=TEMPERATURE CELSIUS

 * =Non NWS site. Station does not report precipitation (e.g. rain,
    snow, etc.), thunder, or fog.

DCZ001-MDZ009-015-VAZ040>042-051-053>054-291800-
WASHINGTON METRO

CITY           SKY/WX    TMP DP  RH WIND       PRES   REMARKS
WASHINGTON NAT CLOUDY    36  12  37 S7        30.26F
DULLES         CLOUDY    31  11  43 S9        30.21F WCI  23
FT BELVOIR     CLOUDY    33  13  44 S7        30.25F
QUANTICO       CLOUDY    33  18  53 S13       30.27F WCI  24
COLLEGE PARK*  CLOUDY    32  14  47 SE5       30.26F
LEESBURG*      CLOUDY    32  16  51 S10G16    30.21F WCI  24
MANASSAS*      CLOUDY    30  14  51 S10       30.24F WCI  21
GAITHERSBURG*  CLOUDY    30   9  40 S10       30.25F WCI  21

$$

MDZ006>007-011-014-291800-
BALTIMORE METRO

CITY           SKY/WX    TMP DP  RH WIND       PRES   REMARKS
BWI AIRPORT    CLOUDY    31  12  45 S7        30.25F
MD SCIENCE CTR   N/A     31  13  47 MISG      30.26F
MARTIN STATE   PTSUNNY   32  18  55 SE9       30.28F WCI  24
ANNAPOLIS      CLOUDY    32  14  47 SE13      30.26F WCI  22
FORT MEADE*    CLOUDY    32  16  51 S3        30.28F

$$

MDZ012-015-019>023-291800-
MARYLAND EASTERN SHORE

CITY           SKY/WX    TMP DP  RH WIND       PRES   REMARKS
OCEAN CITY     MOSUNNY   34  21  59 S5        30.29F
SALISBURY      PTSUNNY   39  10  30 SW8       30.28F
BAY BRIDGE AP*   N/A     32  10  40 SE10      30.27F WCI  24
CAMBRIDGE*     CLOUDY    36  14  41 S8        30.28F
EASTON*        MOSUNNY   34  14  44 S6        30.31F

$$

MDZ017>025-291800-
SOUTHERN MARYLAND

CITY           SKY/WX    TMP DP  RH WIND       PRES   REMARKS
PATUXENT RIVER CLOUDY    33  16  49 SE10      30.27F WCI  25
ST INIGOES     CLOUDY    33  15  47 SE8       30.27F WCI  26
LEONARDTOWN*   CLOUDY    34  14  44 SE5       30.29

$$

MDZ003>005-291800-
NORTH CENTRAL MARYLAND

CITY           SKY/WX    TMP DP  RH WIND       PRES   REMARKS
FREDERICK*     CLOUDY    28  10  47 W3        30.25F
HAGERSTOWN APT CLOUDY    28  11  48 VRB3      30.15F
WESTMINSTER*   CLOUDY    30   9  40 SE8       30.18F WCI  23

$$

MDZ501>502-291800-
WESTERN MARYLAND

CITY           SKY/WX    TMP DP  RH WIND       PRES   REMARKS
OAKLAND*       CLOUDY    32  10  40 SE13      29.93F WCI  22
CUMBERLAND*    PTSUNNY   27  14  59 CALM      30.15F

$$

VAZ025>031-291800-
SHENANDOAH VALLEY

CITY           SKY/WX    TMP DP  RH WIND       PRES   REMARKS
WINCHESTER*    CLOUDY    34   5  29 SE9       30.13F WCI  26
FRONT ROYAL*   CLOUDY    36  18  48 CALM      30.12F
LURAY*         FAIR      41  19  42 SW15      30.11F
NEW MARKET*    FAIR      38  18  45 SW9       30.11F
STAUNTON*      CLOUDY    38   9  31 S12       30.14F
WAYNESBORO*    FAIR      37  12  35 S8        30.12F

$$

WVZ021-048>050-054>055-291800-
EASTERN WEST VIRGINIA PANHANDLE

CITY           SKY/WX    TMP DP  RH WIND       PRES   REMARKS
MARTINSBURG    CLOUDY    33  10  38 SE12      30.16F WCI  24
PETERSBURG*    CLOUDY    28  16  61 CALM      30.08F

$$

VAZ036>039-050-291800-
CENTRAL FOOTHILLS

CITY           SKY/WX    TMP DP  RH WIND       PRES   REMARKS
CHARLOTTESVILL PTSUNNY   39   7  26 S12G18    30.20F
CULPEPER*      PTSUNNY   37   9  30 S7        30.22F
ORANGE*        MOSUNNY   37  10  32 S14       30.23F WCI  29
GORDONSVILLE*  FAIR      38   8  28 S10       30.21F
WARRENTON*     PTSUNNY   37  18  46 S7        30.21F

$$

VAZ055>057-291800-
NORTH AND CENTRAL PIEDMONT

CITY           SKY/WX    TMP DP  RH WIND       PRES   REMARKS
FREDERICKSBRG* PTSUNNY   36  12  36 S8        30.25F
STAFFORD*      CLOUDY    35   8  33 CALM      30.29F

$$

NCZ024-NYZ072-PAZ021-071-VAZ022-071-291800-
OTHER REGIONAL OBSERVATIONS

CITY           SKY/WX    TMP DP  RH WIND       PRES   REMARKS
NEW YORK CITY  SUNNY     31   6  35 VRB3      30.29F
PHILADELPHIA   CLOUDY    32   5  32 SE5       30.28F
PITTSBURGH     FRZ RAIN  32  25  75 S5        29.89F
ROANOKE        PTSUNNY   37  16  42 SE6       30.19F
RICHMOND       CLOUDY    37  12  35 S10       30.28F
RALEIGH        PTSUNNY   42  13  30 SW9       30.30F

$$

ANZ530>537-291800-
MARINE OBSERVATIONS

STATION/POSITION TIME  TEMP    WIND        PRES
                       AIR SEA DIR/SP/G
                 (UTC) (F)     (DEG/KT/KT) (MB)
THOMAS PT LIGHT  1700   31 35  170/ 12/ 13 1025.8F
BALT KEY BRIDGE  1700   29     110/ 12/ 13 1024.6F
COVE POINT       1700   30     180/ 12/ 13 1024.9F
LEWISETTA        1700   34 35  180/  8/  9 1025.0F
SOLOMONS ISLAND  1700      37                N/A
PINEY POINT      1700          160/ 10/ 11   N/A

$$




USA.gov is the U.S. government's official web portal to all federal, state and local government web resources and services.